Chicopee, MA

9:46 PM EDT on August 23, 2016 (GMT -0400)
Westover Air Reserve Base / Metropolitan Airport

Weather History for KCEF - January, 2013

Change the Weather History Date:

Monday, January 28, 2013

  Actual Average Record
Temperature  
Mean Temperature 19 °F -  
Max Temperature 28 °F 30 °F 55 °F (2002)
Min Temperature 10 °F 14 °F -9 °F (2003)
Degree Days  
Heating Degree Days 46    
Moisture  
Dew Point 19 °F    
Average Humidity 81    
Maximum Humidity 100    
Minimum Humidity 34    
Precipitation  
Precipitation 0.13 in - - ()
Sea Level Pressure  
Sea Level Pressure 30.19 in    
Wind  
Wind Speed 3 mph (NW)    
Max Wind Speed 10 mph    
Max Gust Speed -    
Visibility 6 miles    
Events Fog , Rain , Snow    
Averages and records for this station are not official NWS values.
T = Trace of Precipitation, MM = Missing Value Source: NWS Daily Summary

Daily Weather History Graph

Daily Weather History Graph

Search for Another Location

Airport or City:

Trip Planner

Search our weather history database for the weather conditions in past years. The results will help you decide how hot, cold, wet, or windy it might be!

Date:

Astronomy

Jan. 28, 2013 Rise Set
Actual Time 7:07 AM EST 4:59 PM EST
Civil Twilight 6:37 AM EST 5:29 PM EST
Nautical Twilight 6:03 AM EST 6:03 PM EST
Astronomical Twilight 5:30 AM EST 6:36 PM EST
Moon 6:54 PM EST (1/28) 7:28 AM EST (1/28)
Length of Visible Light 10h 52m
Length of Day
9h 52m
Full, 98% of the Moon is Illuminated
Jan 28
Full
Feb 3
Last Quarter
Feb 10
New
Feb 17
First Quarter
Feb 25
Full

Hourly Weather History & Observations

Time (EST) Temp. Windchill Dew Point Humidity Pressure Visibility Wind Dir Wind Speed Gust Speed Precip Events Conditions
12:55 AM 11.3 °F - 5.2 °F 76% 30.46 in 10.0 mi Calm Calm - N/A   Clear
1:55 AM 10.2 °F - 5.2 °F 80% 30.47 in 10.0 mi Calm Calm - N/A   Scattered Clouds
2:55 AM 12.7 °F 5.0 °F 8.1 °F 82% 30.45 in 10.0 mi NNE 4.6 mph - N/A   Mostly Cloudy
3:55 AM 15.4 °F - 9.0 °F 76% 30.43 in 10.0 mi Calm Calm - N/A   Overcast
4:55 AM 17.1 °F - 9.3 °F 72% 30.43 in 10.0 mi Calm Calm - N/A   Overcast
5:55 AM 18.7 °F - 10.9 °F 72% 30.42 in 10.0 mi Calm Calm - N/A   Overcast
6:55 AM 19.2 °F - 10.0 °F 67% 30.42 in 10.0 mi Calm Calm - N/A   Overcast
7:55 AM 20.5 °F - 9.9 °F 64% 30.42 in 10.0 mi Calm Calm - N/A   Scattered Clouds
8:55 AM 22.3 °F - 8.1 °F 54% 30.40 in 10.0 mi Calm Calm - N/A   Overcast
9:55 AM 24.1 °F - 4.6 °F 43% 30.38 in 10.0 mi Calm Calm - N/A   Mostly Cloudy
10:55 AM 26.4 °F 20.9 °F 1.8 °F 35% 30.37 in 10.0 mi Variable 4.6 mph - N/A   Overcast
11:12 AM 26.6 °F 22.6 °F 3.2 °F 37% 30.35 in 10.0 mi Variable 3.5 mph - N/A   Overcast
11:13 AM 26.6 °F 22.6 °F 3.2 °F 37% 30.35 in 10.0 mi Variable 3.5 mph - N/A   Overcast
11:21 AM 28.4 °F 21.2 °F 3.2 °F 34% 30.34 in 10.0 mi SSW 6.9 mph - N/A   Overcast
11:22 AM 28.4 °F 21.2 °F 3.2 °F 34% 30.34 in 10.0 mi SSW 6.9 mph - N/A   Overcast
11:23 AM 28.4 °F 21.2 °F 3.2 °F 34% 30.34 in 10.0 mi SSW 6.9 mph - N/A   Overcast
11:38 AM 28.4 °F 19.1 °F 6.8 °F 40% 30.32 in 10.0 mi South 10.4 mph - N/A Snow Light Snow
11:55 AM 26.4 °F 16.6 °F 15.3 °F 63% 30.32 in 3.0 mi SSW 10.4 mph - 0.00 in Snow Light Snow
11:59 AM 26.6 °F 16.8 °F 15.8 °F 64% 30.32 in 1.5 mi SSW 10.4 mph - N/A Snow Light Snow
12:21 PM 24.8 °F 16.9 °F 19.4 °F 80% 30.30 in 0.8 mi SSW 6.9 mph - N/A Snow Light Snow
12:38 PM 24.8 °F 19.1 °F 21.2 °F 86% 30.28 in 0.5 mi South 4.6 mph - N/A Snow Snow
12:41 PM 24.8 °F 19.1 °F 21.2 °F 86% 30.27 in 0.5 mi SSE 4.6 mph - N/A Snow Snow
12:55 PM 25.0 °F 19.3 °F 22.8 °F 91% 30.26 in 0.5 mi SSE 4.6 mph - 0.01 in Fog , Snow Light Snow
1:57 PM 27.5 °F 23.6 °F 23.7 °F 86% 30.22 in 0.5 mi SSE 3.5 mph - 0.03 in Fog , Snow Light Snow
2:37 PM 26.6 °F 20.0 °F 24.8 °F 93% 30.14 in 0.8 mi SE 5.8 mph - N/A Snow Light Snow
2:55 PM 27.5 °F 23.6 °F 25.9 °F 94% 30.12 in 1.2 mi SSE 3.5 mph - 0.02 in Snow Light Snow
3:09 PM 28.4 °F 21.2 °F 26.6 °F 93% 30.12 in 4.0 mi South 6.9 mph - N/A Snow Light Snow
3:55 PM 28.0 °F 22.8 °F 26.6 °F 94% 30.14 in 3.0 mi WNW 4.6 mph - 0.00 in Snow Light Snow
4:08 PM 28.4 °F - 26.6 °F 93% 30.13 in 2.5 mi Calm Calm - N/A   Ice Pellets
4:55 PM 27.9 °F 22.6 °F 27.3 °F 98% 30.12 in 2.5 mi NNE 4.6 mph - 0.05 in   Ice Pellets
5:20 PM 28.4 °F - 26.6 °F 93% 30.09 in 5.0 mi Calm Calm - N/A Snow Light Snow
5:55 PM 27.5 °F - 27.0 °F 98% 30.08 in 9.0 mi Calm Calm - 0.01 in   Overcast
6:29 PM 26.6 °F 22.6 °F 26.6 °F 100% 30.06 in 4.0 mi North 3.5 mph - N/A   Overcast
6:39 PM 26.6 °F 22.6 °F 26.6 °F 100% 30.04 in 4.0 mi North 3.5 mph - N/A   Overcast
6:55 PM 27.0 °F 21.6 °F 26.6 °F 99% 30.07 in 4.0 mi NW 4.6 mph - 0.00 in   Overcast
7:10 PM 26.6 °F 20.0 °F 26.6 °F 100% 30.06 in 4.0 mi North 5.8 mph - N/A   Overcast
7:20 PM 26.6 °F 20.0 °F 26.6 °F 100% 30.06 in 4.0 mi NNW 5.8 mph - N/A Rain Light Freezing Rain
7:55 PM 27.5 °F 23.6 °F 27.0 °F 98% 30.05 in 4.0 mi North 3.5 mph - 0.01 in Rain Light Freezing Rain
7:56 PM 26.6 °F 21.2 °F 26.6 °F 100% 30.05 in 4.0 mi NNW 4.6 mph - N/A   Light Freezing Drizzle
8:13 PM 26.6 °F - 26.6 °F 100% 30.04 in 4.0 mi Calm Calm - N/A   Light Freezing Drizzle
8:42 PM 28.4 °F - 26.6 °F 93% 30.03 in 4.0 mi Calm Calm - N/A   Light Freezing Drizzle
8:55 PM 27.5 °F - 27.0 °F 98% 30.03 in 4.0 mi Calm Calm - 0.00 in   Light Freezing Drizzle
9:00 PM 26.6 °F - 26.6 °F 100% 30.03 in 4.0 mi Calm Calm - N/A   Overcast
9:31 PM 26.6 °F 22.6 °F 26.6 °F 100% 30.01 in 4.0 mi NNW 3.5 mph - N/A   Overcast
9:36 PM 26.6 °F 22.6 °F 26.6 °F 100% 30.01 in 4.0 mi NNW 3.5 mph - N/A Snow Light Freezing Drizzle
9:55 PM 26.2 °F 22.1 °F 25.9 °F 99% 30.01 in 4.0 mi NNW 3.5 mph - 0.00 in   Light Freezing Drizzle
10:55 PM 25.9 °F 21.7 °F 25.3 °F 98% 30.01 in 4.0 mi NNW 3.5 mph - 0.00 in Rain Light Freezing Rain
11:09 PM 26.6 °F 22.6 °F 24.8 °F 93% 30.01 in 6.0 mi NNW 3.5 mph - N/A   Overcast
11:10 PM 26.6 °F 22.6 °F 24.8 °F 93% 30.00 in 6.0 mi NNW 3.5 mph - N/A   Light Freezing Drizzle
11:27 PM 26.6 °F 21.2 °F 24.8 °F 93% 30.01 in 6.0 mi NNW 4.6 mph - N/A   Overcast
11:29 PM 26.6 °F 21.2 °F 24.8 °F 93% 30.01 in 6.0 mi North 4.6 mph - N/A Snow Light Snow
11:43 PM 26.6 °F 21.2 °F 24.8 °F 93% 30.01 in 6.0 mi North 4.6 mph - N/A   Overcast
11:55 PM 26.1 °F 20.5 °F 25.5 °F 98% 30.01 in 6.0 mi NNW 4.6 mph - 0.00 in   Overcast
11:58 PM 26.6 °F 22.6 °F 24.8 °F 93% 30.01 in 6.0 mi NNW 3.5 mph - N/A   Overcast